• MPC Preparation (Info)

  • MPEC 2024-E17 : 2024 CK11

    The following Minor Planet Electronic Circular may be linked-to from your own Web pages, but must not otherwise be redistributed electronically.

    A form allowing access to any MPEC is at the bottom of this page.


    Read MPEC 2024-E16 Read MPEC 2024-E18


    M.P.E.C. 2024-E17                                 Issued 2024 March 3, 01:33 UT
    
         The Minor Planet Electronic Circulars contain information on unusual
             minor planets, routine data on comets and natural satellites,
             and occasional editorial announcements.  They are published
        on behalf of Division F of the International Astronomical Union by the
              Minor Planet Center, Smithsonian Astrophysical Observatory,
                              Cambridge, MA 02138, U.S.A.
    			  
                 Prepared using the Tamkin Foundation Computer Network
    
                                  MPC@CFA.HARVARD.EDU
                URL https://www.minorplanetcenter.net/    ISSN 1523-6714
    
                                    2024 CK11                                
    
    
    Observations:
         K24C11K* C2024 02 14.50524210 57 20.273-20 32 18.25         21.60wXEE017F52
         K24C11K  C2024 02 14.51629110 57 20.470-20 31 14.55         22.35wXEE017F52
         K24C11K  C2024 02 14.53837710 57 20.916-20 29 05.42         21.54wXEE017F52
         K24C11K  C2024 02 15.43466410 57 51.124-19 01 12.29         21.88GVEE017F52
         K24C11K  C2024 02 15.44638910 57 51.346-19 00 02.88         21.90GVEE017F52
         K24C11K  C2024 02 15.45811410 57 51.544-18 58 52.73         21.60GVEE017F52
         K24C11K  C2024 02 18.45190810 59 15.630-13 51 09.92         21.04GVEE017F51
         K24C11K  C2024 02 18.46396510 59 15.779-13 49 53.85         21.54GVEE017F51
         K24C11K  C2024 03 01.52666711 02 29.070+07 56 08.85         21.08GVEE017F51
         K24C11K  C2024 03 02.35730311 02 38.899+09 19 58.14         21.46wXEE017F51
         K24C11K  C2024 03 02.36922911 02 38.875+09 21 09.48         21.48wXEE017F51
         K24C11K  C2024 03 02.38110311 02 38.844+09 22 20.68         21.45wXEE017F51
    
    Observer details:
    F51 Pan-STARRS 1, Haleakala.  Observers J. Herman, T. Lowe, P. Minguez, A.
        Schultz, I. Smith.  Measurers K. Chambers, T. de Boer, J. Fairlamb, H.
        Gao, M. Huber, C.-C. Lin, E. Magnier, Y. Ramanjooloo, R. Wainscoat, R.
        Weryk.  1.8-m Ritchey-Chretien + CCD.
    F52 Pan-STARRS 2, Haleakala.  Observers J. Herman, T. Lowe, P. Minguez, A.
        Schultz, I. Smith.  Measurers K. Chambers, T. de Boer, J. Fairlamb, H.
        Gao, M. Huber, C.-C. Lin, E. Magnier, Y. Ramanjooloo, R. Wainscoat, R.
        Weryk.  1.8-m Ritchey-Chretien + CCD.
    
    Orbital elements:
    2024 CK11                                                Earth MOID = 0.2429 AU
    Epoch 2024 Mar. 31.0 TT = JDT 2460400.5                 Bell                    
    M  49.62096              (2000.0)            P               Q                  
    n   0.50443015     Peri.  301.28070     -0.24323808     -0.95831372             
    a   1.5629150      Node   160.96229     +0.96993724     -0.23910581             
    e   0.2803437      Incl.   27.35794     -0.00754931     +0.15640722             
    P   1.95           H   23.21          G   0.15           U   8                  
    Residuals in seconds of arc
    240214 F52  0.2+  0.3+    240215 F52  0.1+  0.3-    240301 F51  0.1+  0.2+
    240214 F52  0.0   0.2-    240215 F52  0.1-  0.1+    240302 F51  0.0   0.2+
    240214 F52  0.1+  0.2+    240218 F51  0.1-  0.2+    240302 F51  0.0   0.1-
    240215 F52  0.1-  0.2-    240218 F51  0.1+  0.2-    240302 F51  0.0   0.2-
    
    Ephemeris:
    2024 CK11                a,e,i = 1.56, 0.28, 27                  q = 1.1248
    Date    TT    R. A. (2000) Decl.     Delta      r    Elong.  Phase     V
    2024 02 02    10 47 09.5 -36 43 01   0.3134  1.1756   120.4    46.3    22.8
    ...
    2024 02 17    10 58 36.7 -16 22 37   0.2610  1.2165   147.7    25.7    21.9
    ...
    2024 02 25    11 01 23.9 -01 54 46   0.2583  1.2419   166.1    11.0    21.4
    ...
    2024 03 02    11 02 34.5 +08 44 10   0.2715  1.2623   177.0     2.4    21.1
    2024 03 03    11 02 43.5 +10 23 39   0.2750  1.2658   176.0     3.1    21.2
    2024 03 04    11 02 52.2 +12 00 27   0.2787  1.2693   174.4     4.4    21.3
    ...
    2024 03 10    11 03 41.2 +20 36 20   0.3081  1.2909   163.0    13.0    22.0
    ...
    2024 03 18    11 05 13.7 +29 00 43   0.3617  1.3208   149.9    22.2    22.7
    ...
    2024 04 02    11 11 31.5 +37 13 56   0.4905  1.3792   132.5    32.3    23.7
    
    M. P. C. Staff               (C) Copyright 2024 MPC           M.P.E.C. 2024-E17
    


    Read MPEC 2024-E16 Read MPEC 2024-E18


    MPEC number:

    Enter an MPEC number in one of the following forms:

    • 1997-B01 (the full form)
    • J97B01 (the packed version of the full form)
    • B01 (the abbreviated form)